Simultaneous Nadir Overpasses (SNOs) Predictions

Prediction of SNOs between GOES-15 and NOAA-19 Satellite Orbit:

Table of predicted SNOs for the next 14.0 days since TLE Epoch: 4/4/2025
Index Date Time (GOES-15) GOES-15 Lat,Lon NOAA-19 Lat,Lon Distance(km) Time Diff (sec)
1 04/06/2025 05:47:34 -0.13, 61.33 0.49, 58.65 306.40 80
2 04/07/2025 05:37:38 -0.13, 61.34 -0.23, 61.70 42.01 80
3 04/08/2025 05:25:02 -0.13, 61.34 -0.89, 64.77 390.45 80
4 04/09/2025 17:56:24 0.14, 61.30 -0.82, 57.23 464.60 80
5 04/10/2025 17:43:48 0.13, 61.30 -0.11, 60.28 116.36 80
6 04/11/2025 17:28:33 0.13, 61.31 0.60, 63.34 231.83 80
7 04/14/2025 05:47:09 -0.14, 61.39 0.41, 58.90 283.63 80
8 04/15/2025 05:37:12 -0.14, 61.40 -0.26, 61.97 64.29 80
9 04/16/2025 05:24:36 -0.15, 61.41 -0.95, 65.03 412.05 80
10 04/17/2025 17:56:00 0.16, 61.38 -0.72, 57.47 444.84 80
11 04/18/2025 17:43:24 0.16, 61.39 -0.05, 60.54 97.73 80
